Change the Weather History Date:

Monday, May 26, 2014

  Actual Average (KCTY) Record (KCTY)
Temperature  
Mean Temperature 75 °F 77 °F  
Max Temperature 86 °F 90 °F 97 °F (2012)
Min Temperature 64 °F 65 °F 54 °F (2013)
Degree Days  
Heating Degree Days 0 0  
Month to date heating degree days 0  
Since 1 July heating degree days 1303  
Cooling Degree Days 10 12  
Month to date cooling degree days 234  
Year to date cooling degree days 416  
Growing Degree Days 25 (Base 50)    
Moisture  
Dew Point 69 °F    
Average Humidity 87    
Maximum Humidity 100    
Minimum Humidity 51    
Precipitation  
Precipitation 0.07 in 0.10 in 0.07 in (2014)
Month to date precipitation 1.96  
Year to date precipitation 16.44  
Sea Level Pressure  
Sea Level Pressure 30.16 in    
Wind  
Wind Speed 5 mph (SE)    
Max Wind Speed 14 mph    
Max Gust Speed 21 mph    
Visibility 9 miles    
Events Rain , Thunderstorm    
T = Trace of Precipitation, MM = Missing Value Source: NWS Daily Summary

Daily Weather History Graph

Daily Weather History Graph

Search for Another Location

Airport or City:

Trip Planner

Search our weather history database for the weather conditions in past years. The results will help you decide how hot, cold, wet, or windy it might be!

Date:

Astronomy

May. 26, 2014 Rise Set
Actual Time 6:35 AM EDT 8:27 PM EDT
Civil Twilight 6:08 AM EDT 8:54 PM EDT
Nautical Twilight 5:36 AM EDT 9:26 PM EDT
Astronomical Twilight 5:01 AM EDT 10:01 PM EDT
Moon 5:06 AM EDT (5/26) 6:37 PM EDT (5/26)
Length of Visible Light 14h 45m
Length of Day
13h 52m
Waning Crescent, 5% of the Moon is Illuminated
May 26
Waning Crescent
May 28
New
Jun 5
First Quarter
Jun 13
Full
Jun 19
Last Quarter

Hourly Weather History & Observations

Time (EDT) Temp. Heat Index Dew Point Humidity Pressure Visibility Wind Dir Wind Speed Gust Speed Precip Events Conditions
12:15 AM 68.0 °F - 68.0 °F 100% 30.17 in 10.0 mi NNE 13.8 mph - 0.01 in Rain , Thunderstorm Thunderstorms and Rain
12:35 AM 69.8 °F - 69.8 °F 100% 30.13 in 10.0 mi NE 11.5 mph - 0.03 in Rain Light Rain
12:55 AM 68.0 °F - 68.0 °F 100% 30.13 in 10.0 mi Calm Calm - 0.03 in Rain Light Rain
1:15 AM 68.0 °F - 68.0 °F 100% 30.14 in 10.0 mi Calm Calm - N/A   Clear
1:35 AM 68.0 °F - 68.0 °F 100% 30.13 in 10.0 mi Calm Calm - N/A   Clear
1:55 AM 68.0 °F - 68.0 °F 100% 30.13 in 10.0 mi Calm Calm - N/A   Clear
2:15 AM 68.0 °F - 68.0 °F 100% 30.13 in 10.0 mi Calm Calm - N/A   Clear
2:35 AM 68.0 °F - 68.0 °F 100% 30.14 in 7.0 mi SSE 9.2 mph - N/A   Clear
2:55 AM 68.0 °F - 68.0 °F 100% 30.14 in 10.0 mi SSE 4.6 mph - N/A   Clear
3:15 AM 68.0 °F - 68.0 °F 100% 30.14 in 10.0 mi Calm Calm - N/A   Clear
3:35 AM 68.0 °F - 68.0 °F 100% 30.14 in 10.0 mi Calm Calm - N/A   Clear
3:55 AM 64.4 °F - 64.4 °F 100% 30.13 in 3.0 mi Calm Calm - N/A   Clear
4:15 AM 64.4 °F - 64.4 °F 100% 30.13 in 3.0 mi Calm Calm - N/A   Clear
4:35 AM 64.4 °F - 64.4 °F 100% 30.14 in 2.0 mi NNE 4.6 mph - N/A   Clear
4:55 AM 64.4 °F - 64.4 °F 100% 30.15 in 10.0 mi NNE 4.6 mph - N/A   Clear
5:15 AM 64.4 °F - 64.4 °F 100% 30.15 in 7.0 mi NNE 4.6 mph - N/A   Clear
5:35 AM 64.4 °F - 64.4 °F 100% 30.15 in 10.0 mi NE 3.5 mph - N/A   Mostly Cloudy
5:55 AM 64.4 °F - 64.4 °F 100% 30.15 in 10.0 mi Calm Calm - N/A   Mostly Cloudy
6:15 AM 64.4 °F - 64.4 °F 100% 30.16 in 10.0 mi Calm Calm - N/A   Scattered Clouds
6:35 AM 64.4 °F - 64.4 °F 100% 30.16 in 7.0 mi Calm Calm - N/A   Clear
6:55 AM 64.4 °F - 64.4 °F 100% 30.18 in 7.0 mi North 3.5 mph - N/A   Scattered Clouds
7:15 AM 64.4 °F - 64.4 °F 100% 30.18 in 7.0 mi Calm Calm - N/A   Mostly Cloudy
7:35 AM 66.2 °F - 66.2 °F 100% 30.18 in 10.0 mi Calm Calm - N/A   Mostly Cloudy
7:55 AM 68.0 °F - 68.0 °F 100% 30.19 in 10.0 mi Calm Calm - N/A   Scattered Clouds
8:15 AM 68.0 °F - 68.0 °F 100% 30.19 in 10.0 mi East 3.5 mph - N/A   Clear
8:35 AM 69.8 °F - 69.8 °F 100% 30.20 in 10.0 mi East 3.5 mph - N/A   Clear
8:55 AM 71.6 °F - 71.6 °F 100% 30.21 in 10.0 mi East 3.5 mph - N/A   Clear
9:15 AM 73.4 °F - 73.4 °F 100% 30.20 in 10.0 mi East 4.6 mph - N/A   Clear
9:35 AM 75.2 °F - 75.2 °F 100% 30.20 in 10.0 mi ESE 5.8 mph - N/A   Clear
9:55 AM 77.0 °F - 77.0 °F 100% 30.21 in 10.0 mi East 3.5 mph - N/A   Clear
10:15 AM 77.0 °F - 77.0 °F 100% 30.21 in 10.0 mi East 4.6 mph - N/A   Clear
10:35 AM 78.8 °F - 78.8 °F 100% 30.21 in 10.0 mi SE 8.1 mph - N/A   Clear
11:15 AM 80.6 °F 88.1 °F 78.8 °F 94% 30.21 in 10.0 mi SSE 5.8 mph - N/A   Clear
11:35 AM 80.6 °F 86.2 °F 75.2 °F 84% 30.21 in 10.0 mi SSE 4.6 mph - N/A   Clear
11:55 AM 82.4 °F 87.2 °F 71.6 °F 70% 30.21 in 10.0 mi Calm Calm - N/A   Clear
12:15 PM 82.4 °F 87.2 °F 71.6 °F 70% 30.21 in 10.0 mi South 5.8 mph - N/A   Scattered Clouds
12:55 PM 84.2 °F 87.3 °F 68.0 °F 58% 30.20 in 10.0 mi SSW 5.8 mph - N/A   Scattered Clouds
1:15 PM 86.0 °F 89.4 °F 68.0 °F 55% 30.19 in 10.0 mi SE 3.5 mph - N/A   Clear
1:35 PM 86.0 °F 88.2 °F 66.2 °F 51% 30.18 in 10.0 mi East 3.5 mph - N/A   Clear
2:15 PM 86.0 °F 89.4 °F 68.0 °F 55% 30.17 in 10.0 mi SSW 5.8 mph - N/A   Mostly Cloudy
2:35 PM 84.2 °F 87.3 °F 68.0 °F 58% 30.17 in 10.0 mi SW 8.1 mph - N/A   Overcast
2:55 PM 80.6 °F 84.6 °F 71.6 °F 74% 30.16 in 7.0 mi WSW 6.9 mph - 0.04 in Rain Heavy Rain
3:15 PM 80.6 °F 85.4 °F 73.4 °F 79% 30.15 in 10.0 mi WSW 5.8 mph - N/A Rain Light Rain
3:35 PM 86.0 °F 91.8 °F 71.6 °F 62% 30.14 in 10.0 mi West 8.1 mph - N/A   Clear
3:55 PM 84.2 °F 89.6 °F 71.6 °F 66% 30.13 in 10.0 mi West 6.9 mph - N/A   Clear
4:15 PM 86.0 °F 90.4 °F 69.8 °F 58% 30.13 in 10.0 mi West 6.9 mph - N/A   Clear
4:35 PM 86.0 °F 89.4 °F 68.0 °F 55% 30.11 in 10.0 mi West 4.6 mph - N/A   Clear
4:55 PM 86.0 °F 89.4 °F 68.0 °F 55% 30.11 in 10.0 mi West 6.9 mph - N/A Thunderstorm Thunderstorm
5:15 PM 86.0 °F 89.4 °F 68.0 °F 55% 30.11 in 10.0 mi WSW 3.5 mph - N/A Thunderstorm Clear
5:35 PM 80.6 °F 82.3 °F 64.4 °F 58% 30.14 in 10.0 mi ENE 13.8 mph 20.7 mph N/A   Mostly Cloudy
5:55 PM 77.0 °F - 68.0 °F 74% 30.14 in 10.0 mi SE 13.8 mph 20.7 mph N/A Thunderstorm Overcast
6:15 PM 75.2 °F - 64.4 °F 69% 30.14 in 10.0 mi SSE 11.5 mph 19.6 mph N/A   Overcast
6:35 PM 73.4 °F - 64.4 °F 73% 30.15 in 10.0 mi SE 6.9 mph - N/A Rain Light Rain
6:55 PM 73.4 °F - 64.4 °F 73% 30.15 in 10.0 mi Calm Calm - N/A   Scattered Clouds
7:15 PM 73.4 °F - 64.4 °F 73% 30.15 in 10.0 mi Calm Calm - N/A   Clear
7:35 PM 73.4 °F - 66.2 °F 78% 30.15 in 10.0 mi East 4.6 mph - N/A   Clear
7:55 PM 73.4 °F - 64.4 °F 73% 30.15 in 10.0 mi ESE 6.9 mph - N/A   Clear
8:15 PM 73.4 °F - 66.2 °F 78% 30.16 in 10.0 mi East 4.6 mph - N/A   Clear
8:35 PM 73.4 °F - 66.2 °F 78% 30.16 in 10.0 mi Calm Calm - N/A   Clear
8:55 PM 71.6 °F - 69.8 °F 94% 30.16 in 7.0 mi Calm Calm - N/A   Clear
9:15 PM 71.6 °F - 71.6 °F 100% 30.16 in 10.0 mi Calm Calm - N/A   Clear
9:35 PM 71.6 °F - 71.6 °F 100% 30.17 in 10.0 mi Calm Calm - N/A   Clear
9:55 PM 71.6 °F - 71.6 °F 100% 30.17 in 10.0 mi Calm Calm - N/A   Clear
10:15 PM 71.6 °F - 71.6 °F 100% 30.18 in 10.0 mi ESE 3.5 mph - N/A   Clear
10:35 PM 69.8 °F - 69.8 °F 100% 30.19 in 10.0 mi Calm Calm - N/A   Clear
10:55 PM 69.8 °F - 69.8 °F 100% 30.18 in 10.0 mi Calm Calm - N/A   Clear
11:15 PM 69.8 °F - 69.8 °F 100% 30.18 in 10.0 mi Calm Calm - N/A   Clear
11:35 PM 69.8 °F - 69.8 °F 100% 30.18 in 10.0 mi Calm Calm - N/A   Clear
11:55 PM 68.0 °F - 68.0 °F 100% 30.18 in 7.0 mi Calm Calm - N/A   Clear